Time,TemperatureF,DewpointF,PressureIn,WindDirection,WindDirectionDegrees,WindSpeedMPH,WindSpeedGustMPH,Humidity,HourlyPrecipIn,Conditions,Clouds,dailyrainin,SolarRadiationWatts/m^2,SoftwareType,DateUTC
2013-06-25 01:43:00,48.0,44.0,-100.00,SSE,153,5.0,11.0,86,-99.99,,,0.32,1.000000,,2013-06-25 08:43:00,
2013-06-25 01:52:00,48.0,44.0,-100.00,SSE,153,5.0,11.0,86,-99.99,,,0.32,1.000000,,2013-06-25 08:52:00,
2013-06-25 02:21:00,49.0,45.0,-100.00,South,171,8.0,20.0,86,0.00,,,0.32,1.000000,,2013-06-25 09:21:00,
2013-06-25 02:33:00,49.0,45.0,-100.00,South,171,8.0,20.0,86,0.00,,,0.32,1.000000,,2013-06-25 09:33:00,
2013-06-25 02:43:00,49.0,45.0,-100.00,South,171,8.0,20.0,86,0.00,,,0.32,1.000000,,2013-06-25 09:43:00,
2013-06-25 02:52:00,49.0,45.0,-100.00,South,171,8.0,20.0,86,0.00,,,0.32,1.000000,,2013-06-25 09:52:00,
2013-06-25 03:33:00,49.0,44.0,-100.00,South,178,8.0,14.0,83,0.00,,,0.32,1.000000,,2013-06-25 10:33:00,
2013-06-25 03:42:00,49.0,44.0,-100.00,South,178,8.0,14.0,83,0.00,,,0.32,1.000000,,2013-06-25 10:42:00,
2013-06-25 03:52:00,49.0,44.0,-100.00,South,178,8.0,14.0,83,0.00,,,0.32,1.000000,,2013-06-25 10:52:00,
2013-06-25 05:43:00,50.0,45.0,-100.00,South,182,6.0,14.0,82,-99.99,,,0.32,1.000000,,2013-06-25 12:43:00,
2013-06-25 05:55:00,50.0,45.0,-100.00,South,182,6.0,14.0,82,-99.99,,,0.32,1.000000,,2013-06-25 12:55:00,
2013-06-25 06:22:00,50.0,45.0,-100.00,South,169,5.0,16.0,82,0.00,,,0.30,3.000000,,2013-06-25 13:22:00,
2013-06-25 06:34:00,50.0,45.0,-100.00,South,169,5.0,16.0,82,0.00,,,0.30,3.000000,,2013-06-25 13:34:00,
2013-06-25 06:42:00,50.0,45.0,-100.00,South,169,5.0,16.0,82,0.00,,,0.30,3.000000,,2013-06-25 13:42:00,
2013-06-25 06:53:00,50.0,45.0,-100.00,South,169,5.0,16.0,82,0.00,,,0.30,3.000000,,2013-06-25 13:53:00,
2013-06-25 07:42:00,50.0,45.0,-100.00,SE,132,3.0,7.0,83,0.00,,,0.25,31.000000,,2013-06-25 14:42:00,
2013-06-25 07:53:00,50.0,45.0,-100.00,SE,132,3.0,7.0,83,0.00,,,0.25,31.000000,,2013-06-25 14:53:00,
2013-06-25 08:44:00,51.0,46.0,-100.00,NE,56,3.0,11.0,83,0.00,,,0.21,42.000000,,2013-06-25 15:44:00,
2013-06-25 08:53:00,51.0,46.0,-100.00,NE,56,3.0,11.0,83,0.00,,,0.21,42.000000,,2013-06-25 15:53:00,
2013-06-25 09:23:00,51.0,46.0,-100.00,South,175,5.0,13.0,84,0.00,,,0.15,100.000000,,2013-06-25 16:23:00,
2013-06-25 09:34:00,51.0,46.0,-100.00,South,175,5.0,13.0,84,0.00,,,0.15,100.000000,,2013-06-25 16:34:00,
2013-06-25 09:44:00,51.0,46.0,-100.00,South,175,5.0,13.0,84,0.00,,,0.15,100.000000,,2013-06-25 16:44:00,
2013-06-25 09:52:00,51.0,46.0,-100.00,South,175,5.0,13.0,84,0.00,,,0.15,100.000000,,2013-06-25 16:52:00,
2013-06-25 10:44:00,51.0,48.0,-100.00,SSE,167,5.0,14.0,91,0.03,,,0.17,112.000000,,2013-06-25 17:44:00,
2013-06-25 10:53:00,51.0,48.0,-100.00,SSE,167,5.0,14.0,91,0.03,,,0.17,112.000000,,2013-06-25 17:53:00,
2013-06-25 11:22:00,52.0,49.0,-100.00,South,186,5.0,10.0,88,0.01,,,0.16,121.000000,,2013-06-25 18:22:00,
2013-06-25 11:34:00,52.0,49.0,-100.00,South,186,5.0,10.0,88,0.01,,,0.16,121.000000,,2013-06-25 18:34:00,
2013-06-25 11:44:00,52.0,49.0,-100.00,South,186,5.0,10.0,88,0.01,,,0.16,121.000000,,2013-06-25 18:44:00,
2013-06-25 11:52:00,52.0,49.0,-100.00,South,186,5.0,10.0,88,0.01,,,0.16,121.000000,,2013-06-25 18:52:00,
2013-06-25 12:44:00,53.0,50.0,-100.00,South,175,5.0,11.0,91,0.01,,,-99.99,144.000000,,2013-06-25 19:44:00,
2013-06-25 12:53:00,53.0,50.0,-100.00,South,175,5.0,11.0,91,0.01,,,-99.99,144.000000,,2013-06-25 19:53:00,
2013-06-25 13:33:00,55.0,51.0,-100.00,SSW,194,8.0,14.0,86,0.00,,,0.11,233.000000,,2013-06-25 20:33:00,
2013-06-25 13:42:00,55.0,51.0,-100.00,SSW,194,8.0,14.0,86,0.00,,,0.11,233.000000,,2013-06-25 20:42:00,
2013-06-25 13:52:00,55.0,51.0,-100.00,SSW,194,8.0,14.0,86,0.00,,,0.11,233.000000,,2013-06-25 20:52:00,
2013-06-25 14:22:00,55.0,51.0,-100.00,SW,221,5.0,18.0,86,0.01,,,0.12,380.000000,,2013-06-25 21:22:00,
2013-06-25 14:33:00,55.0,51.0,-100.00,SW,221,5.0,18.0,86,0.01,,,0.12,380.000000,,2013-06-25 21:33:00,
2013-06-25 14:43:00,55.0,51.0,-100.00,SW,221,5.0,18.0,86,0.01,,,0.12,380.000000,,2013-06-25 21:43:00,
2013-06-25 14:53:00,55.0,51.0,-100.00,SW,221,5.0,18.0,86,0.01,,,0.12,380.000000,,2013-06-25 21:53:00,
2013-06-25 15:22:00,57.0,50.0,-100.00,SSW,213,8.0,16.0,77,0.01,,,0.13,385.000000,,2013-06-25 22:22:00,
2013-06-25 15:33:00,57.0,50.0,-100.00,SSW,213,8.0,16.0,77,0.01,,,0.13,385.000000,,2013-06-25 22:33:00,
2013-06-25 15:42:00,57.0,50.0,-100.00,SSW,213,8.0,16.0,77,0.01,,,0.13,385.000000,,2013-06-25 22:42:00,
2013-06-25 15:52:00,57.0,50.0,-100.00,SSW,213,8.0,16.0,77,0.01,,,0.13,385.000000,,2013-06-25 22:52:00,
2013-06-25 16:22:00,56.0,47.0,-100.00,SW,233,12.0,32.0,73,0.00,,,0.11,219.000000,,2013-06-25 23:22:00,
2013-06-25 16:34:00,56.0,47.0,-100.00,SW,233,12.0,32.0,73,0.00,,,0.11,219.000000,,2013-06-25 23:34:00,
2013-06-25 16:43:00,56.0,47.0,-100.00,SW,233,12.0,32.0,73,0.00,,,0.11,219.000000,,2013-06-25 23:43:00,
2013-06-25 16:52:00,56.0,47.0,-100.00,SW,233,12.0,32.0,73,0.00,,,0.11,219.000000,,2013-06-25 23:52:00,
2013-06-25 18:33:00,58.0,48.0,-100.00,West,259,9.0,19.0,69,0.00,,,0.09,200.000000,,2013-06-26 01:33:00,
2013-06-25 18:43:00,58.0,48.0,-100.00,West,259,9.0,19.0,69,0.00,,,0.09,200.000000,,2013-06-26 01:43:00,
2013-06-25 18:52:00,58.0,48.0,-100.00,West,259,9.0,19.0,69,0.00,,,0.09,200.000000,,2013-06-26 01:52:00,
2013-06-25 19:22:00,57.0,47.0,-100.00,WSW,246,7.0,15.0,70,0.00,,,0.09,156.000000,,2013-06-26 02:22:00,
2013-06-25 19:34:00,57.0,47.0,-100.00,WSW,246,7.0,15.0,70,0.00,,,0.09,156.000000,,2013-06-26 02:34:00,
2013-06-25 19:43:00,57.0,47.0,-100.00,WSW,246,7.0,15.0,70,0.00,,,0.09,156.000000,,2013-06-26 02:43:00,
2013-06-25 19:53:00,57.0,47.0,-100.00,WSW,246,7.0,15.0,70,0.00,,,0.09,156.000000,,2013-06-26 02:53:00,
2013-06-25 20:22:00,57.0,47.0,-100.00,WSW,240,9.0,16.0,68,0.00,,,0.09,115.000000,,2013-06-26 03:22:00,
2013-06-25 20:33:00,57.0,47.0,-100.00,WSW,240,9.0,16.0,68,0.00,,,0.09,115.000000,,2013-06-26 03:33:00,
2013-06-25 20:43:00,57.0,47.0,-100.00,WSW,240,9.0,16.0,68,0.00,,,0.09,115.000000,,2013-06-26 03:43:00,
2013-06-25 20:52:00,57.0,47.0,-100.00,WSW,240,9.0,16.0,68,0.00,,,0.09,115.000000,,2013-06-26 03:52:00,
2013-06-25 21:33:00,55.0,47.0,-100.00,South,191,3.0,13.0,74,0.00,,,0.09,22.000000,,2013-06-26 04:33:00,
2013-06-25 21:43:00,55.0,47.0,-100.00,South,191,3.0,13.0,74,0.00,,,0.09,22.000000,,2013-06-26 04:43:00,
2013-06-25 21:53:00,55.0,47.0,-100.00,South,191,3.0,13.0,74,0.00,,,0.09,22.000000,,2013-06-26 04:53:00,
2013-06-25 22:22:00,54.0,46.0,-100.00,WSW,244,10.0,16.0,75,0.00,,,0.09,1.000000,,2013-06-26 05:22:00,
2013-06-25 22:34:00,54.0,46.0,-100.00,WSW,244,10.0,16.0,75,0.00,,,0.09,1.000000,,2013-06-26 05:34:00,
2013-06-25 22:43:00,54.0,46.0,-100.00,WSW,244,10.0,16.0,75,0.00,,,0.09,1.000000,,2013-06-26 05:43:00,
2013-06-25 22:52:00,54.0,46.0,-100.00,WSW,244,10.0,16.0,75,0.00,,,0.09,1.000000,,2013-06-26 05:52:00,
2013-06-25 23:22:00,52.0,45.0,-100.00,NW,309,1.0,15.0,78,0.00,,,0.09,1.000000,,2013-06-26 06:22:00,
2013-06-25 23:34:00,52.0,45.0,-100.00,NW,309,1.0,15.0,78,0.00,,,0.09,1.000000,,2013-06-26 06:34:00,
2013-06-25 23:43:00,52.0,45.0,-100.00,NW,309,1.0,15.0,78,0.00,,,0.09,1.000000,,2013-06-26 06:43:00,
2013-06-25 23:53:00,52.0,45.0,-100.00,NW,309,1.0,15.0,78,0.00,,,0.09,1.000000,,2013-06-26 06:53:00,